Location: Castro Valley
(37.6940°N, 122.0850°W)
Time: 15:26:35
(UTC-07:00)

PANSAT - Visible Passes

Search period start: 02 August 2015 00:00
Search period end: 12 August 2015 00:00
Orbit: 483 x 489 km, 28.5° (Epoch: 01 August)

Date Brightness Start Highest point End Pass type
(mag) Time Alt. Az. Time Alt. Az. Time Alt. Az.
02 Aug 9.9 05:39:13 10° S 05:40:39 12° SSE 05:42:07 10° SE visible
03 Aug 9.9 05:11:27 10° S 05:12:57 12° SSE 05:14:32 10° SE visible
04 Aug 9.8 04:45:00 12° S 04:45:17 12° SSE 04:46:55 10° SE visible
05 Aug 10.1 04:18:49 11° SE 04:18:49 11° SE 04:19:20 10° SE visible
06 Aug 9.2 05:26:55 12° SW 05:29:19 20° S 05:32:09 10° SE visible
07 Aug 9.1 05:00:48 19° SSW 05:01:37 20° S 05:04:28 10° SE visible
08 Aug 9.3 04:34:44 19° SSE 04:34:44 19° SSE 04:36:47 10° SE visible
09 Aug 10.1 04:08:44 12° SE 04:08:44 12° SE 04:09:06 10° SE visible
09 Aug 9.4 05:43:18 10° SW 05:45:41 16° S 05:48:02 10° SSE visible
10 Aug 9.4 05:17:07 15° SSW 05:17:59 16° S 05:20:18 10° SSE visible
11 Aug 9.7 04:51:21 14° S 04:51:21 14° S 04:52:33 10° SSE visible
